{"data":{"norad_id":46077,"intl_designator":"2020-055BC","name":"STARLINK-1559","alt_names":[],"object_type":"PAYLOAD","status":"ACTIVE","operator":null,"country":"US","launch_date":"2020-08-07","launch_site_code":"AFETR","launch_vehicle":null,"mission":null,"orbit_class":"UNKNOWN","rcs_meters":null,"size_class":null,"mass_kg":null,"dimensions":null,"purposes":["comms"],"wikipedia_slug":null,"has_3d_model":false,"image_url":null,"decayed_at":null,"tle_current":{"epoch":"2026-09-19T22:28:21.936000Z","epoch_age_seconds":66919,"freshness":"FRESH","line1":"1 46077U 20055BC  26262.93636500  .00054398  00000+0  10243-2 0  9996","line2":"2 46077  53.0160 236.7079 0003783  43.0509 317.0793 15.48013787339499","mean_motion":15.48013787,"eccentricity":0.0003783,"inclination_deg":53.016,"raan_deg":236.7079,"arg_perigee_deg":43.0509,"mean_anomaly_deg":317.0793,"bstar":0.0010243,"rev_number":33949,"period_min":93.022427325449,"perigee_km":419.96433063544,"apogee_km":425.10972060322,"semimajor_km":6800.6740256193,"source":"CELESTRAK","updated_at":"2026-09-20T09:00:38.465540Z"}}}